{"data":{"norad_id":68564,"intl_designator":"2026-070Y","name":"STARLINK-37008","alt_names":[],"object_type":"PAYLOAD","status":"ACTIVE","operator":null,"country":"US","launch_date":"2026-04-02","launch_site_code":"AFETR","launch_vehicle":null,"mission":null,"orbit_class":"UNKNOWN","rcs_meters":null,"size_class":null,"mass_kg":null,"dimensions":null,"purposes":["comms"],"wikipedia_slug":null,"has_3d_model":false,"image_url":null,"decayed_at":null,"tle_current":{"epoch":"2026-09-20T04:34:31.314144Z","epoch_age_seconds":71687,"freshness":"FRESH","line1":"1 68564U 26070Y   26263.19064021  .00014656  00000+0  44396-3 0  9996","line2":"2 68564  53.1569 174.8713 0001739  90.5987 269.5215 15.34405852 26396","mean_motion":15.34405852,"eccentricity":0.0001739,"inclination_deg":53.1569,"raan_deg":174.8713,"arg_perigee_deg":90.5987,"mean_anomaly_deg":269.5215,"bstar":0.00044396,"rev_number":2639,"period_min":93.847400159681,"perigee_km":461.49622779206,"apogee_km":463.87546597821,"semimajor_km":6840.8228468851,"source":"CELESTRAK","updated_at":"2026-09-20T09:00:43.938211Z"}}}